Puerto Barrios, Guatemala

7:03 AM CST on June 28, 2017 (GMT -0600)
Puerto Barrios

Weather History for MGPB - September, 2013

Change the Weather History Date:

Wednesday, September 11, 2013

  Actual Average Record
Temperature  
Mean Temperature 80 °F -  
Max Temperature 87 °F 86 °F 96 °F (2008)
Min Temperature 73 °F 73 °F 71 °F (2012)
Cooling Degree Days 15    
Growing Degree Days 30 (Base 50)    
Moisture  
Dew Point 76 °F    
Average Humidity 91    
Maximum Humidity 100    
Minimum Humidity 70    
Precipitation  
Precipitation 0.00 in - - ()
Sea Level Pressure  
Sea Level Pressure 29.80 in    
Wind  
Wind Speed 3 mph ()    
Max Wind Speed 34 mph    
Max Gust Speed -    
Visibility 5.9 miles    
Events Rain , Thunderstorm    
Averages and records for this station are not official NWS values.
T = Trace of Precipitation, MM = Missing Value Source: Averaged Metar Reports

Daily Weather History Graph

Daily Weather History Graph

Search for Another Location

Airport or City:

Trip Planner

Search our weather history database for the weather conditions in past years. The results will help you decide how hot, cold, wet, or windy it might be!

Date:

Astronomy

Sep. 11, 2013 Rise Set
Actual Time 5:42 AM CST 5:59 PM CST
Civil Twilight 5:20 AM CST 6:20 PM CST
Nautical Twilight 4:55 AM CST 6:45 PM CST
Astronomical Twilight 4:30 AM CST 7:10 PM CST
Moon 11:12 AM CST (9/11) 10:53 PM CST (9/11)
Length of Visible Light 12h 59m
Length of Day
12h 16m
Waxing Crescent, 39% of the Moon is Illuminated
Sep 11
Waxing Crescent
Sep 12
First Quarter
Sep 19
Full
Sep 26
Last Quarter
Oct 4
New

Hourly Weather History & Observations

Time (CST) Temp. Heat Index Dew Point Humidity Pressure Visibility Wind Dir Wind Speed Gust Speed Precip Events Conditions
12:00 AM 77.0 °F - 75.2 °F 94% 29.83 in 6.2 mi Calm Calm - N/A   Mostly Cloudy
1:00 AM 77.0 °F - 75.2 °F 94% 29.80 in 6.2 mi Calm Calm - N/A   Overcast
2:00 AM 78.8 °F - 75.2 °F 89% 29.80 in 6.2 mi ESE 6.9 mph - N/A   Overcast
3:00 AM 77.0 °F - 75.2 °F 94% 29.77 in 6.2 mi Calm Calm - N/A   Overcast
4:00 AM 77.0 °F - 75.2 °F 94% 29.77 in 6.2 mi Calm Calm - N/A   Mostly Cloudy
5:00 AM 75.2 °F - 75.2 °F 100% 29.77 in 6.2 mi Calm Calm - N/A   Mostly Cloudy
6:00 AM 76 °F - 75 °F 95% 29.79 in 25 mi Calm Calm - -   Overcast
6:00 AM 75.2 °F - 75.2 °F 100% 29.77 in 6.2 mi Calm Calm - N/A   Mostly Cloudy
7:00 AM 77.0 °F - 75.2 °F 94% 29.80 in 6.2 mi Calm Calm - N/A   Overcast
8:00 AM 78.8 °F - 77.0 °F 94% 29.83 in 6.2 mi Calm Calm - N/A   Mostly Cloudy
9:00 AM 80.6 °F 86.2 °F 75.2 °F 84% 29.83 in 6.2 mi Calm Calm - N/A   Mostly Cloudy
10:00 AM 82.4 °F 90.9 °F 77.0 °F 84% 29.83 in 6.2 mi Calm Calm - N/A   Mostly Cloudy
11:00 AM 84.2 °F 96.1 °F 78.8 °F 84% 29.83 in 6.2 mi North 11.5 mph - N/A   Mostly Cloudy
12:00 PM - - - % 29.82 in 25 mi North 9.2 mph - -   Overcast
12:00 PM 86.0 °F 101.9 °F 80.6 °F 84% 29.80 in 6.2 mi North 9.2 mph - N/A   Mostly Cloudy
1:00 PM 87.8 °F 102.5 °F 78.8 °F 75% 29.77 in 6.2 mi WNW 18.4 mph - N/A   Mostly Cloudy
2:00 PM 87.8 °F 99.7 °F 77.0 °F 70% 29.77 in 6.2 mi North 13.8 mph - N/A   Scattered Clouds
3:00 PM 87.8 °F 102.5 °F 78.8 °F 75% 29.74 in 6.2 mi NNE 6.9 mph - N/A   Mostly Cloudy
4:00 PM 77.0 °F - 77.0 °F 100% 29.80 in 0.6 mi West 34.5 mph - N/A Rain , Thunderstorm Heavy Thunderstorms and Rain
5:00 PM 73.4 °F - 73.4 °F 100% 29.74 in 5.6 mi East 4.6 mph - N/A Rain , Thunderstorm Light Thunderstorms and Rain
6:00 PM 73.4 °F - 73.4 °F 100% 29.80 in 6.2 mi Calm Calm - N/A Thunderstorm Thunderstorm
7:00 PM 73.4 °F - 73.4 °F 100% 29.80 in 6.2 mi Calm Calm - N/A Rain , Thunderstorm Light Thunderstorms and Rain
8:00 PM 75.2 °F - 73.4 °F 94% 29.83 in 6.2 mi Calm Calm - N/A   Light Drizzle
9:00 PM 75.2 °F - 73.4 °F 94% 29.83 in 6.2 mi Calm Calm - N/A   Mostly Cloudy
10:00 PM 75.2 °F - 73.4 °F 94% 29.83 in 6.2 mi Calm Calm - N/A   Overcast
11:00 PM 75.2 °F - 75.2 °F 100% 29.86 in 6.2 mi Calm Calm - N/A   Light Drizzle